Theta_e
321 320 321 321 321 320 325 329 328 331 332 327 325 325 323 325 327 327 330 329 330 333 330 332 332 329 333 333 336 337 335 339 340 338 339 336 333 336 336 336 337 337 340 340 340 340 338 339 338 337 336 335 332 331 330 328 328 330 334 337 337 337 338 337 337 337 336 336 334 332 331 328 328 330 329 329 330 330 330 330 330 330 329 329 329 330 330 330 329 329 330 329 329 328 328 328 327
321 321 321 321 321 319 324 329 330 332 330 324 323 325 322 324 327 329 334 331 330 334 333 335 336 336 337 335 334 336 334 334 333 333 334 333 335 337 336 337 336 338 340 339 340 339 339 339 337 337 336 333 333 334 331 328 330 330 332 335 336 335 335 335 334 334 333 334 335 333 331 328 329 330 330 330 329 329 330 330 329 329 329 330 329 330 329 329 329 329 329 329 330 328 328 328 327
321 320 321 321 321 321 329 329 325 330 330 324 325 327 325 328 331 332 333 329 330 332 334 334 337 338 337 337 334 334 335 331 331 333 334 335 336 336 337 337 337 339 339 340 340 339 339 338 337 336 334 332 334 335 331 328 330 329 331 334 334 333 333 332 330 330 331 333 334 334 332 330 331 331 330 330 329 330 331 330 329 328 329 329 330 330 329 329 329 329 329 329 329 327 327 327 327
320 321 320 321 323 328 343 337 329 332 329 327 324 326 331 334 332 332 331 328 330 331 334 336 338 334 333 338 335 334 336 332 332 335 335 336 336 336 337 337 338 339 339 340 339 339 338 337 337 335 333 332 333 333 330 330 332 330 330 333 333 333 333 331 330 331 331 332 332 333 332 332 333 332 331 330 329 329 329 329 329 328 329 330 330 330 329 329 329 329 329 329 328 326 326 327 327
320 322 318 322 328 329 337 330 330 331 324 327 324 325 335 336 332 332 332 329 328 329 333 337 339 333 332 336 335 337 335 332 333 334 336 336 336 336 337 338 338 339 339 339 339 339 338 337 336 334 333 332 332 331 329 331 333 332 330 332 333 333 333 332 332 332 331 330 330 331 332 333 334 333 333 331 329 329 328 328 329 328 328 329 329 329 328 328 328 328 328 328 326 326 327 326 326
320 320 319 322 322 320 327 322 323 327 324 329 326 329 335 332 333 335 331 327 328 330 331 335 338 336 337 335 333 334 332 333 334 334 335 336 336 337 338 338 338 339 339 339 339 338 337 337 335 334 333 332 333 330 329 330 331 332 332 332 333 333 332 333 332 331 331 331 331 332 333 334 334 334 333 331 330 329 328 328 328 328 328 328 328 328 328 328 328 327 328 327 325 325 326 325 325
319 319 325 327 322 323 332 326 326 329 322 323 324 329 334 331 332 334 331 328 330 330 331 336 335 337 340 335 333 333 331 333 333 333 335 336 337 337 338 338 338 338 338 339 338 338 338 336 335 333 333 333 333 331 328 328 330 331 332 333 333 332 332 333 332 331 332 332 332 333 333 334 334 333 332 332 331 329 328 328 328 328 328 327 328 328 328 328 327 327 327 326 325 325 325 324 324
320 321 329 335 334 335 338 329 330 329 317 318 322 327 332 332 332 332 332 331 329 331 335 336 334 338 337 332 337 334 330 332 332 333 335 337 338 337 337 337 338 338 338 339 338 338 337 336 334 333 332 332 332 332 329 328 330 330 330 331 332 332 332 333 332 332 332 332 332 331 332 333 333 333 332 333 332 329 328 327 328 329 327 327 328 328 327 327 327 327 326 326 325 324 324 323 323
320 321 327 333 333 334 337 330 325 324 321 320 320 328 332 330 331 330 331 330 327 330 336 334 333 335 334 338 343 333 329 332 331 333 335 337 338 337 337 338 338 338 338 338 338 337 336 335 334 333 332 332 333 332 329 328 330 331 330 329 331 332 332 332 332 332 331 331 331 330 330 331 332 333 333 333 332 331 329 327 327 327 327 327 327 326 326 326 326 326 325 325 325 324 323 322 322
322 324 328 332 331 328 329 328 325 323 322 321 318 327 333 329 329 328 328 328 327 331 335 332 334 336 338 347 346 332 331 332 331 334 336 338 337 337 337 337 338 337 338 337 337 337 336 335 333 333 332 332 334 333 331 328 328 330 330 329 330 330 331 332 332 332 330 330 331 328 328 330 331 332 333 332 332 331 330 328 326 326 326 326 324 324 325 325 325 326 325 324 324 323 323 323 322
327 333 334 331 331 328 325 327 329 329 323 321 321 324 329 329 328 330 328 326 327 332 335 331 337 344 344 346 341 332 330 331 332 335 336 337 337 338 338 337 338 337 337 337 336 336 335 335 334 333 331 333 334 333 332 329 328 328 328 328 329 330 331 331 331 331 330 330 328 326 326 328 329 331 332 332 331 331 330 329 327 325 325 325 323 324 325 324 324 324 323 322 323 323 323 323 322
327 337 341 331 329 329 328 329 330 336 331 326 327 322 323 326 326 329 329 327 326 331 335 332 335 342 349 352 343 332 329 331 332 334 336 337 337 338 338 338 337 336 336 336 336 336 335 335 334 333 332 333 334 334 332 330 328 327 327 328 329 330 330 330 331 330 329 329 327 326 328 328 329 330 330 331 330 330 329 328 327 325 324 325 322 322 324 322 321 321 321 321 322 323 322 322 322
333 337 338 328 328 329 328 329 327 331 332 329 327 318 319 325 327 330 330 329 327 332 331 326 333 337 345 349 339 332 330 332 333 334 336 336 337 337 338 337 337 337 336 336 335 335 336 335 334 333 333 333 334 334 331 330 328 327 328 329 329 329 328 329 330 329 329 329 328 328 329 329 330 330 329 329 330 330 329 327 327 325 324 324 322 321 321 320 319 320 319 320 321 321 322 321 321
334 339 337 328 328 333 331 328 325 322 324 329 324 317 319 324 328 330 329 328 328 332 322 319 333 338 335 336 339 343 334 330 334 335 336 336 336 337 337 337 337 337 336 336 336 336 335 335 334 334 333 332 334 334 331 329 327 327 329 330 329 328 328 328 328 328 329 329 328 328 329 328 329 329 329 329 330 330 328 327 326 325 325 322 319 319 319 319 320 319 319 319 320 320 321 321 321
327 339 340 333 328 329 330 329 328 323 323 326 320 318 321 320 324 329 326 326 326 322 318 322 329 326 326 330 336 343 332 330 334 336 336 334 335 337 337 336 336 336 336 336 335 335 335 335 334 334 333 332 333 333 331 329 327 327 328 329 329 329 329 329 328 327 328 328 326 326 327 327 327 328 329 330 330 329 328 327 325 323 323 320 317 318 318 319 320 319 320 320 320 321 321 321 321
327 340 339 332 329 327 327 326 327 325 325 324 317 318 322 319 321 326 321 322 324 318 322 329 322 319 327 327 326 329 328 331 334 336 335 334 335 336 336 336 336 336 336 335 335 335 335 334 334 335 333 332 332 332 330 329 328 326 328 328 328 329 330 330 329 327 326 325 323 324 326 325 326 326 327 328 329 328 327 327 326 323 321 318 317 318 318 319 320 320 320 320 321 321 321 321 321
325 336 336 330 331 330 328 324 324 328 328 323 316 317 324 323 318 319 316 318 325 324 328 328 319 323 331 328 326 327 329 329 333 337 335 335 336 335 336 335 335 335 335 335 334 335 334 334 334 335 334 333 332 331 330 330 329 327 328 329 328 329 331 330 329 327 326 324 321 320 321 322 324 326 326 326 327 327 327 327 326 324 320 317 317 318 318 319 320 321 321 321 321 321 322 321 322
326 333 333 329 332 332 329 326 324 325 326 321 317 319 324 325 321 317 318 323 327 326 330 329 326 327 328 327 329 329 329 329 333 336 336 336 336 336 336 335 335 335 335 334 334 333 333 333 334 334 333 334 333 331 329 330 330 328 327 329 329 329 330 330 328 327 326 325 323 320 319 319 321 324 325 325 326 326 326 326 325 323 320 316 316 318 318 319 320 321 321 321 322 322 322 322 322
333 334 329 330 335 331 325 326 324 320 321 321 319 320 323 324 323 320 322 329 328 326 329 330 332 332 328 328 329 329 328 330 332 334 336 336 335 336 335 334 334 334 334 334 333 333 332 332 333 333 332 333 333 331 329 330 330 329 327 327 329 330 330 329 328 327 327 326 325 321 319 318 318 321 323 324 325 325 325 325 324 323 319 315 316 318 318 318 319 321 321 322 322 322 321 322 322
330 330 328 332 334 329 322 322 324 320 319 322 319 317 322 321 320 321 323 330 330 329 329 328 332 336 335 330 326 327 328 329 331 332 334 335 336 335 335 335 334 334 334 333 333 333 333 332 331 332 332 333 333 332 330 330 330 329 328 327 327 329 330 329 328 327 326 325 324 321 317 316 317 319 321 322 323 324 323 323 323 323 319 315 316 318 317 318 318 320 321 321 322 321 321 321 321
325 325 330 332 327 327 324 319 323 320 315 319 319 318 322 318 317 322 324 328 329 331 329 325 328 335 342 334 324 326 327 327 329 330 332 333 334 334 334 334 334 334 334 333 333 332 332 332 331 331 332 332 333 333 331 330 330 330 329 328 326 327 328 328 327 326 326 324 322 321 316 314 317 319 321 322 322 323 322 321 321 321 319 315 316 317 317 317 317 318 320 321 321 322 321 321 321
325 325 330 329 322 323 322 317 319 318 313 317 319 319 319 314 316 323 326 326 327 330 328 326 326 329 339 337 326 324 325 326 328 328 329 330 331 332 333 333 333 333 333 333 332 332 332 332 331 331 331 332 333 333 332 330 330 330 329 329 327 326 327 327 326 325 325 322 321 321 316 314 316 318 320 322 322 322 321 320 319 319 317 315 316 317 317 316 316 317 319 321 322 322 322 322 321
326 327 326 328 324 322 320 316 317 317 316 319 319 316 315 315 316 320 325 325 326 327 321 323 323 319 325 330 326 326 326 325 327 328 328 329 329 330 331 331 332 331 332 332 332 332 332 332 331 331 331 331 333 334 333 331 330 329 329 329 327 326 326 325 323 323 323 322 322 322 318 314 314 315 319 320 321 320 319 317 316 316 315 315 316 317 316 316 315 316 320 321 322 322 322 322 322
324 327 325 324 322 321 320 318 318 317 317 318 317 315 315 319 317 316 321 323 324 319 310 309 310 313 322 328 329 326 326 325 326 328 328 329 329 329 330 329 330 330 330 330 331 332 332 333 331 331 331 330 332 333 333 332 330 329 329 328 328 327 326 324 322 322 323 323 323 323 321 318 314 313 316 318 318 318 316 316 315 315 315 316 317 317 316 315 315 316 319 322 322 322 322 322 322
323 326 327 322 320 322 321 320 321 320 319 317 316 317 319 320 315 315 320 320 321 314 311 315 314 319 328 333 333 326 325 326 325 327 327 328 328 328 329 329 329 329 329 330 330 331 332 333 330 330 331 330 330 332 333 333 331 330 329 329 328 327 326 325 323 322 322 323 324 324 323 321 316 313 315 316 316 315 315 314 314 314 315 316 317 316 315 314 314 315 319 322 323 323 322 322 322
325 326 329 325 321 321 320 319 323 326 323 319 318 321 323 319 315 318 321 321 322 315 321 335 333 336 339 334 331 326 325 326 325 326 327 327 327 327 328 328 329 329 329 330 330 331 331 332 331 329 330 330 329 331 333 333 332 330 329 329 328 327 326 325 325 324 323 323 323 324 324 323 319 315 314 315 314 313 314 314 314 315 315 317 317 316 315 314 314 315 319 322 323 323 323 322 322
326 326 327 324 323 321 321 320 321 325 326 321 319 322 325 320 317 320 322 320 320 318 324 339 342 345 344 335 328 325 325 326 326 327 326 326 326 327 328 328 329 329 329 330 330 330 330 331 331 330 330 330 329 329 332 333 332 331 329 329 329 328 326 326 325 325 324 323 323 323 324 323 321 317 315 314 314 314 314 315 315 315 316 317 316 316 315 314 314 315 318 322 323 323 323 323 323
325 326 323 324 325 321 321 322 322 322 322 323 320 322 325 321 319 321 324 321 319 321 322 333 344 347 344 337 329 325 325 325 326 325 326 326 327 327 327 328 329 329 329 330 330 330 330 330 331 331 330 329 329 329 330 331 332 331 330 329 329 329 327 326 326 325 325 324 323 323 323 323 322 320 317 315 316 316 315 315 316 316 316 317 316 316 315 315 315 315 317 322 323 323 323 323 323
324 326 326 328 326 325 323 322 324 321 319 325 322 322 324 320 322 324 326 324 319 322 322 328 339 343 341 334 329 327 325 325 325 325 326 327 327 328 327 328 328 329 329 329 330 330 330 330 330 331 330 330 329 329 329 330 330 331 331 330 329 329 328 327 326 326 326 325 324 323 323 323 322 321 320 317 317 317 317 316 316 316 317 316 316 316 315 315 315 315 316 320 323 323 323 323 323
324 325 329 331 329 332 327 321 326 321 320 328 323 324 327 321 323 324 325 326 321 321 322 323 328 332 334 330 330 329 325 325 325 325 327 327 327 327 327 328 328 328 329 328 329 329 330 330 330 331 331 330 329 329 329 329 329 330 330 330 330 329 329 328 327 327 326 326 326 324 323 322 322 321 321 320 318 318 318 318 317 316 316 316 316 316 316 316 316 316 316 319 323 323 323 323 323
327 325 327 331 334 334 324 320 324 320 321 325 322 325 328 323 324 324 325 326 323 322 321 322 323 323 323 324 327 329 325 324 325 326 326 326 327 327 327 327 327 328 328 328 328 328 329 329 329 330 330 330 330 329 329 328 329 329 329 330 330 330 330 329 328 327 327 327 327 325 323 321 321 321 321 321 320 319 319 319 318 317 317 317 317 317 316 316 316 316 317 319 322 323 323 323 323
328 330 331 330 333 334 327 322 323 321 322 322 321 326 326 324 325 326 324 323 322 321 320 322 322 321 319 317 319 322 322 321 323 326 326 327 327 327 327 327 327 327 327 328 327 327 328 328 329 329 329 330 330 329 329 329 329 329 330 330 331 331 330 330 329 328 328 328 327 326 324 321 320 320 320 320 320 320 319 319 319 319 319 319 319 319 318 317 317 317 317 318 321 323 323 323 323
327 330 334 331 331 334 333 327 323 324 323 320 322 327 329 327 323 322 321 320 321 320 320 321 321 320 318 316 315 316 316 316 319 321 324 326 327 327 327 327 327 327 327 327 327 327 328 328 328 328 329 329 330 330 330 329 329 329 330 330 330 331 330 330 330 329 328 328 328 326 324 323 321 319 318 318 319 319 319 319 319 319 320 320 319 319 319 318 317 318 318 318 321 322 323 323 323
329 328 331 330 329 331 333 332 326 323 323 322 322 323 326 326 323 325 324 322 323 323 323 323 321 319 318 317 316 314 314 315 315 315 318 321 324 326 327 327 327 327 328 327 327 327 327 327 327 328 328 328 329 330 330 330 330 329 329 330 330 330 330 330 330 330 329 329 329 327 325 324 323 320 317 316 318 318 318 319 319 319 319 319 319 319 319 318 317 318 318 319 320 322 323 323 323
331 327 329 328 327 329 332 334 328 322 323 323 323 323 322 322 323 326 325 321 322 323 322 322 320 318 318 317 316 315 314 313 312 312 314 316 318 322 323 325 327 327 328 327 327 327 327 328 327 327 328 328 328 329 330 330 329 329 329 329 329 329 330 330 330 330 330 330 329 328 326 325 325 323 319 316 316 317 318 319 319 319 319 319 319 319 319 318 318 318 318 320 321 322 323 323 324
332 327 328 329 328 328 331 335 328 321 323 324 323 323 323 322 321 322 322 320 321 321 320 319 318 317 317 317 316 316 315 314 312 312 313 313 314 316 318 321 324 326 328 328 328 327 327 327 327 327 327 327 328 328 329 329 329 329 328 328 328 328 329 329 330 330 330 330 330 329 327 326 325 325 323 319 316 316 317 317 318 318 319 319 320 319 318 318 318 317 317 319 321 322 323 323 324
331 328 329 329 330 330 330 332 327 320 324 328 324 322 322 322 321 320 321 320 321 322 320 319 319 318 318 318 317 317 316 315 313 313 313 313 313 314 315 317 322 326 327 328 328 328 327 328 327 327 327 327 327 327 328 328 329 329 328 328 327 327 328 328 329 329 330 330 330 330 328 327 326 325 325 323 320 319 318 317 317 318 319 320 320 318 317 318 319 318 318 319 320 321 322 323 323
327 328 330 329 329 332 330 329 326 321 323 329 327 324 323 322 320 320 320 320 320 320 320 320 319 319 319 319 319 318 318 317 316 315 314 314 313 313 314 315 320 324 326 327 328 328 328 328 327 328 327 327 327 327 327 327 328 328 328 328 327 327 327 328 328 329 329 329 329 330 329 328 327 325 325 324 323 322 322 321 319 318 319 319 319 319 318 318 319 320 320 320 320 320 321 323 323
328 329 329 330 329 329 330 330 327 322 323 331 329 324 323 322 320 320 319 320 320 319 319 320 321 321 320 320 320 319 319 319 318 316 314 313 313 312 313 314 317 321 323 326 327 328 328 328 328 328 327 327 327 326 326 326 327 327 328 328 328 328 327 328 328 328 328 328 329 329 329 328 327 326 325 325 325 324 324 324 322 320 318 319 320 320 318 317 320 321 321 321 320 320 321 322 323
330 330 329 331 330 329 333 333 326 321 322 325 324 322 321 321 321 320 320 319 320 320 320 319 320 320 320 321 320 320 320 319 318 317 315 313 311 311 312 313 316 319 322 325 326 327 328 328 328 328 327 327 327 326 326 326 326 326 327 327 328 327 328 328 328 328 328 328 328 329 329 328 327 326 326 326 325 324 324 324 324 323 320 319 320 321 318 316 318 321 321 322 321 320 321 322 324
330 329 329 332 331 330 333 331 325 324 323 319 321 325 326 325 325 325 323 321 319 319 319 319 319 319 319 319 319 319 318 319 318 318 316 313 311 311 312 313 315 318 321 323 325 326 327 327 327 327 327 327 327 327 326 325 325 326 326 327 327 327 326 326 326 326 326 327 328 328 328 328 327 326 326 325 325 324 324 324 325 324 322 320 320 321 319 314 316 320 321 322 322 320 321 322 323
331 329 329 331 333 332 330 327 326 333 333 323 322 331 334 332 332 328 326 325 322 320 320 319 319 318 318 317 317 317 317 317 317 316 316 314 312 312 312 313 314 317 319 320 321 323 323 325 326 327 327 327 327 326 326 325 325 325 326 326 326 325 325 325 325 326 326 327 328 328 328 327 327 327 326 326 325 324 324 324 325 324 323 321 320 320 320 316 314 317 320 322 322 321 321 322 322
332 330 329 330 332 331 329 328 329 335 336 325 321 330 334 333 332 330 330 329 325 323 322 321 319 318 318 317 317 317 317 317 317 316 315 315 314 313 312 312 313 315 317 317 319 321 322 323 324 325 326 327 327 326 326 325 325 325 325 325 326 325 325 325 326 326 326 327 327 327 327 327 327 327 327 326 326 325 324 324 324 324 323 322 321 320 320 317 314 314 318 320 322 322 322 322 322
331 328 330 330 329 330 331 331 332 333 332 326 323 327 330 329 328 328 330 331 327 325 325 323 321 319 318 318 317 317 317 317 317 318 317 315 314 313 312 312 313 315 316 317 319 320 322 323 323 324 325 326 326 326 326 325 325 325 325 325 325 325 326 326 326 326 326 326 326 327 327 327 327 327 327 327 326 326 324 324 324 324 324 323 321 320 319 318 316 315 316 319 322 322 322 322 322
330 325 328 330 328 330 330 330 332 329 328 330 326 325 329 331 328 326 328 328 326 326 326 325 323 322 321 320 319 318 317 316 316 317 317 316 314 313 313 313 314 315 315 316 317 318 320 322 324 325 325 326 326 326 326 326 325 325 325 325 325 325 325 326 326 326 326 326 326 326 326 327 327 327 327 327 327 326 325 324 324 324 324 323 322 320 318 318 318 318 317 319 321 322 322 322 322
326 322 324 326 326 328 328 330 331 326 328 333 329 326 329 331 329 328 327 328 328 326 326 325 323 322 321 320 321 319 318 318 317 316 315 313 313 314 314 314 314 314 314 315 316 317 319 321 323 325 326 326 326 326 326 326 325 325 325 325 325 325 325 325 325 325 325 326 326 326 326 326 327 327 327 327 327 326 326 325 324 323 324 323 323 321 319 319 319 319 319 319 319 321 322 322 322
324 325 326 326 326 326 326 328 329 328 330 331 328 326 328 330 331 330 329 330 330 327 325 325 322 321 320 319 319 319 319 319 319 318 314 310 310 312 312 312 313 314 314 314 315 315 317 320 322 324 325 326 326 326 325 325 325 325 325 325 325 325 325 325 325 325 325 325 325 326 326 326 326 327 327 327 327 327 326 325 325 324 323 323 323 322 321 319 318 318 319 320 321 321 321 321 322
326 330 330 329 327 325 326 326 326 331 333 330 327 326 327 329 330 331 332 332 330 327 326 327 326 324 321 319 319 318 319 320 320 320 317 312 311 311 310 310 311 312 313 313 314 314 315 318 320 323 324 325 326 326 326 326 325 325 325 325 325 325 325 325 324 325 325 325 325 325 325 325 325 326 326 326 327 327 326 326 325 324 324 323 323 323 322 320 319 319 319 320 321 321 322 321 321
328 330 329 330 330 329 330 329 328 331 331 329 329 327 327 328 325 325 329 330 330 328 325 325 326 324 322 321 321 320 320 321 320 320 318 316 315 311 308 309 310 310 312 312 313 314 315 317 319 321 323 324 326 326 326 326 325 325 325 325 325 325 325 325 325 325 325 325 325 325 325 325 325 325 325 326 326 326 326 326 325 325 325 325 324 323 323 322 321 320 320 320 321 321 322 322 321
327 327 327 329 331 332 332 331 330 331 330 329 327 326 328 329 325 323 324 323 324 324 322 322 323 322 321 321 320 318 319 318 317 317 316 316 314 309 307 308 309 310 311 312 312 312 314 316 318 320 321 322 324 326 326 326 326 326 325 325 325 325 325 325 325 325 325 325 325 325 325 325 325 325 325 326 326 326 326 326 326 326 326 325 325 324 323 322 322 321 321 321 321 321 321 321 321
326 325 325 325 328 331 331 332 332 332 330 327 324 326 330 329 325 326 326 324 324 324 323 322 321 320 319 318 317 317 317 317 317 316 315 314 311 308 308 308 309 310 311 312 312 312 312 314 317 319 320 321 323 325 326 326 326 326 326 326 325 325 325 325 326 325 325 325 325 325 325 325 325 326 325 326 326 326 326 326 326 326 325 325 325 324 323 322 322 321 321 321 321 321 321 321 321
326 326 326 324 326 329 329 329 329 329 331 327 325 328 330 326 322 322 323 325 326 327 327 325 323 319 318 318 318 317 317 317 318 317 316 314 310 307 308 308 309 310 310 310 311 311 312 313 315 317 319 320 322 324 325 326 326 326 326 326 326 325 325 325 325 326 325 325 325 325 326 326 326 326 325 326 326 326 326 326 326 325 325 325 324 324 323 323 322 321 321 321 321 321 321 320 321
326 327 327 325 327 330 329 327 325 325 329 329 328 329 328 324 323 322 322 323 324 326 329 329 324 319 318 320 318 318 318 317 316 316 316 314 309 306 307 307 308 309 309 310 310 311 311 312 314 316 317 320 322 323 324 325 326 326 326 326 326 325 325 325 325 326 326 326 326 326 326 326 326 326 326 326 326 326 325 325 325 325 325 325 325 324 324 323 322 322 321 321 321 320 321 320 320
326 327 326 325 327 329 327 327 327 326 328 330 330 329 327 326 327 326 324 323 321 321 323 324 322 320 321 321 319 318 317 316 316 315 314 312 308 304 305 306 307 308 308 309 310 311 311 312 313 315 316 318 320 322 323 324 325 326 326 326 326 326 326 326 326 326 326 326 326 326 326 326 326 326 326 326 326 325 325 325 325 325 325 325 324 324 323 323 323 322 322 322 321 321 321 321 321
324 325 324 325 327 327 325 326 328 328 328 329 331 330 328 327 325 324 324 322 323 325 323 322 322 320 320 319 319 318 317 317 318 316 315 315 310 304 304 304 305 307 308 308 310 310 311 311 312 313 315 317 319 321 322 324 325 325 326 326 326 326 326 326 326 326 326 326 326 326 326 326 326 326 326 326 326 325 325 325 325 326 325 325 324 324 323 323 323 323 323 322 322 322 321 321 322
322 323 324 324 324 327 327 326 329 329 328 328 329 330 331 329 323 322 322 321 324 328 327 325 324 320 318 319 319 319 319 319 318 317 317 317 311 304 303 304 303 305 306 307 308 308 309 311 311 312 314 316 318 320 321 323 324 325 325 326 326 326 326 326 326 326 326 325 326 326 326 326 326 326 326 326 326 326 326 326 326 326 326 325 325 324 323 323 324 324 324 324 323 323 323 322 322
323 324 325 324 323 326 328 327 330 330 327 327 327 326 327 326 321 321 322 320 322 325 324 323 322 319 318 319 319 319 318 318 318 317 317 316 310 304 303 304 303 304 305 305 307 307 308 309 310 311 313 315 317 319 321 322 323 324 325 325 326 326 326 327 326 326 326 326 326 326 326 326 326 326 326 326 326 326 326 327 327 326 326 326 325 325 324 324 324 324 324 324 324 324 324 324 323
323 323 325 324 323 325 327 326 329 329 326 327 327 323 321 320 322 323 321 320 321 323 322 320 319 319 318 318 318 318 317 317 317 316 316 315 309 304 303 303 303 304 305 305 306 307 308 308 309 310 311 314 316 317 319 321 322 323 324 325 326 326 326 326 326 326 326 326 326 326 326 326 326 326 326 326 326 327 327 327 327 327 327 326 326 325 325 325 324 325 325 325 325 324 324 324 324
Wind_Speed
14 14 14 11 10 6 3 5 1 2 3 2 1 0 1 1 0 1 2 1 1 2 1 0 2 4 3 1 3 3 2 3 3 2 1 2 2 15 19 12 15 16 14 15 16 16 15 14 12 11 10 9 8 8 9 9 11 10 10 12 11 10 10 10 11 11 9 9 9 12 12 12 13 13 13 14 14 14 14 14 14 14 14 14 14 14 14 14 14 15 15 15 15 15 15 16 16
14 13 14 11 8 6 0 2 2 2 4 2 1 1 1 0 0 3 4 2 2 1 0 2 3 3 3 3 1 2 1 1 2 2 3 2 4 15 15 11 16 16 14 14 16 16 15 14 12 11 10 9 9 8 8 10 12 11 12 14 12 9 9 9 10 9 8 9 11 13 13 12 14 14 14 14 14 13 13 13 14 15 14 14 14 14 14 14 14 15 15 14 15 14 15 15 15
13 12 14 9 5 5 1 3 2 0 3 1 2 2 0 1 3 4 4 3 3 2 1 1 2 1 2 2 0 1 1 2 2 2 2 4 7 13 13 11 16 15 15 15 17 17 15 15 13 11 10 9 10 8 8 10 11 10 13 14 12 9 8 8 7 7 9 10 10 12 12 12 13 14 14 14 13 13 13 13 14 14 14 14 14 14 14 14 14 14 14 14 14 13 14 15 15
12 10 13 7 2 4 3 3 1 2 2 2 1 2 1 3 4 3 4 3 3 2 1 1 0 1 1 1 1 0 1 1 3 4 2 8 9 11 13 13 16 15 15 16 16 17 15 15 13 12 10 10 9 8 8 10 10 10 13 14 12 10 9 9 8 9 10 10 10 10 10 10 11 13 14 13 13 13 13 13 13 13 14 14 13 13 13 14 14 14 14 14 13 13 15 15 14
10 7 10 5 2 2 2 2 1 2 2 3 1 2 3 4 4 3 2 1 2 1 1 2 0 1 0 1 1 1 2 1 4 7 5 11 11 11 14 14 15 14 15 15 16 16 15 14 13 12 10 10 9 7 8 10 10 10 13 14 13 11 10 11 10 10 10 10 11 10 9 9 10 12 13 12 11 12 13 13 12 13 13 13 13 13 12 13 13 13 14 13 12 14 14 14 14
9 5 8 8 4 1 2 1 1 0 3 3 1 3 3 4 4 4 2 1 1 1 2 2 1 1 0 1 1 2 2 2 5 8 10 14 13 12 14 14 14 14 14 14 15 16 14 14 12 11 10 9 8 8 8 9 11 11 13 14 13 12 11 11 10 10 10 11 11 11 9 10 10 11 12 11 9 11 12 12 12 13 13 13 13 12 12 12 12 13 13 12 12 12 13 13 13
10 4 4 8 3 1 3 1 2 1 2 3 1 3 2 4 4 4 3 0 1 1 0 1 1 2 1 1 1 3 2 2 5 6 13 17 15 15 15 14 15 14 13 14 16 15 14 13 13 11 10 9 8 9 9 10 12 13 13 13 13 12 12 11 10 10 11 11 10 10 9 9 10 10 11 11 9 10 12 13 12 12 13 12 12 12 11 11 11 12 12 12 11 11 11 12 13
8 3 0 4 2 3 3 1 2 2 0 2 2 3 2 4 3 5 3 2 2 0 0 1 1 2 1 1 0 2 1 5 4 4 15 19 17 18 17 16 15 15 13 15 17 16 15 14 13 12 11 10 8 9 9 12 13 12 11 12 13 12 12 11 11 11 11 11 9 9 9 9 10 10 10 11 9 10 12 12 11 12 12 12 11 12 11 11 11 11 11 11 11 10 10 11 11
5 3 0 3 2 2 2 1 1 2 2 2 3 4 2 3 3 4 4 1 1 2 2 2 2 1 1 1 1 2 0 5 5 7 17 19 19 20 18 17 15 15 15 16 17 16 16 14 13 12 12 10 9 8 8 11 13 13 11 10 12 12 12 12 11 11 11 10 9 9 9 9 10 10 10 10 9 10 10 10 10 11 11 10 10 11 11 10 10 10 11 11 10 10 9 9 9
4 3 1 2 2 1 2 1 1 1 4 3 3 4 2 4 2 2 3 1 1 2 2 1 1 0 1 1 2 1 0 4 7 11 17 19 19 20 19 17 16 16 17 17 17 16 16 15 14 13 13 11 10 9 8 9 11 14 14 11 12 11 12 12 11 11 11 10 9 8 9 9 9 9 9 9 9 9 8 7 8 9 8 8 9 10 10 10 10 10 9 9 9 8 8 8 8
2 3 2 2 2 1 1 2 2 2 4 3 2 4 3 4 3 2 1 1 1 2 1 1 1 2 2 1 2 0 1 4 10 14 16 18 18 19 19 16 16 16 17 18 17 16 16 15 14 14 14 12 12 10 9 8 10 14 15 13 12 12 13 12 11 11 10 9 8 7 8 9 8 8 9 9 8 7 6 6 6 8 7 6 8 10 10 10 9 9 8 7 7 7 7 7 7
1 3 3 2 2 2 2 2 2 4 5 3 1 2 3 5 4 2 2 2 2 1 2 4 2 3 2 3 3 1 2 6 11 14 16 17 17 18 17 16 17 17 17 17 17 17 15 15 15 15 14 13 14 12 10 9 9 13 14 13 13 14 13 12 11 10 10 9 8 7 7 9 8 8 8 8 7 6 6 6 6 7 7 6 8 9 9 9 8 7 6 6 7 7 6 6 5
2 1 3 2 2 2 3 3 2 3 4 2 2 1 3 5 4 4 4 1 1 2 3 5 2 2 1 3 3 2 3 8 12 14 16 16 16 18 16 16 18 17 17 16 16 16 15 15 16 16 15 14 14 13 11 9 9 13 15 15 15 15 13 12 10 10 10 10 10 9 9 9 9 8 7 7 7 7 6 6 6 5 6 6 7 9 9 9 8 7 6 6 7 7 6 5 5
2 2 3 2 1 2 3 2 1 1 2 3 1 2 3 3 4 4 6 2 4 4 2 3 5 2 1 2 3 3 4 11 13 15 17 16 17 20 17 16 17 16 17 16 15 15 15 16 17 16 16 15 15 13 12 10 10 15 17 16 16 15 14 13 11 11 12 12 11 10 10 9 8 8 8 8 7 7 6 5 5 5 5 6 8 10 10 9 8 7 6 7 7 7 7 5 4
2 2 3 3 1 1 3 2 2 3 3 4 2 3 3 2 3 4 5 4 4 3 1 2 4 2 2 2 2 3 4 14 15 16 18 18 19 19 16 14 15 14 15 16 15 15 16 17 17 17 17 16 16 15 13 11 11 15 17 17 16 15 14 14 14 13 13 13 12 12 11 10 8 8 8 8 8 7 6 5 4 4 5 7 10 11 10 9 7 7 7 7 8 7 6 5 4
2 3 4 2 2 2 3 2 3 3 3 4 2 2 3 2 2 3 3 3 1 1 1 2 2 1 3 4 3 4 4 16 16 18 19 18 18 17 14 13 13 13 14 16 16 15 16 18 18 17 18 17 17 16 14 12 11 13 15 15 15 14 15 16 15 13 12 11 12 12 11 10 10 9 8 8 8 8 7 6 5 4 4 7 11 11 10 9 7 7 7 7 6 5 4 3 2
2 3 3 1 3 2 3 3 3 4 3 3 2 2 5 2 1 1 1 3 2 1 2 2 2 2 4 4 3 5 8 18 17 20 20 19 19 17 15 14 13 13 14 16 17 16 17 20 20 19 19 18 17 16 15 13 12 12 14 14 14 14 15 16 14 13 12 10 10 12 11 11 11 10 9 9 9 9 8 7 6 5 5 7 11 12 11 10 8 8 7 6 4 3 3 2 2
2 2 2 2 3 3 4 6 6 3 1 4 4 4 6 4 2 2 1 2 2 1 3 3 2 5 7 6 6 3 13 20 19 22 22 21 20 18 19 18 17 16 16 17 18 17 18 21 22 21 20 18 18 17 16 15 13 13 14 14 14 15 16 15 13 12 12 11 10 11 12 12 12 13 11 11 11 10 9 8 7 5 5 8 11 11 11 10 9 8 6 5 4 3 3 3 3
2 3 2 4 4 4 5 6 6 2 1 4 3 3 5 5 4 3 2 1 2 2 4 3 4 7 7 5 3 7 17 19 19 22 22 22 22 22 21 21 21 20 20 21 19 17 19 22 23 23 21 20 19 18 18 17 16 15 15 15 15 15 16 15 14 13 12 12 12 12 13 13 13 14 14 13 13 12 11 10 9 7 6 9 11 11 11 10 9 7 6 5 3 2 3 3 3
1 3 2 5 4 3 3 6 6 3 2 5 4 3 3 4 4 3 4 1 0 4 5 2 5 9 6 3 6 13 18 17 17 19 22 23 23 24 23 22 22 23 24 24 20 17 18 22 23 24 22 22 21 20 20 19 18 17 16 16 16 17 17 16 15 14 14 14 14 13 14 14 14 14 15 14 14 13 12 11 11 9 8 10 11 11 11 10 9 8 7 5 3 2 3 4 3
2 3 4 4 2 2 3 5 6 3 3 4 4 3 2 3 2 3 6 3 3 6 6 7 8 8 7 4 7 14 17 16 15 17 20 22 23 24 23 23 23 24 25 23 19 18 19 21 23 24 24 23 23 22 22 22 20 19 19 18 17 18 18 17 16 16 16 16 15 14 14 15 15 15 16 15 15 14 13 12 12 11 10 11 12 12 11 10 9 9 7 6 4 3 3 3 2
2 2 4 3 2 1 3 2 4 3 4 4 4 4 3 2 1 3 7 5 5 5 6 9 9 7 7 6 9 12 13 15 15 17 19 21 23 23 23 22 22 22 23 22 20 19 20 21 23 25 25 25 25 24 24 23 22 21 21 20 19 19 19 19 18 18 18 17 15 15 15 16 17 16 17 16 15 14 14 13 13 12 12 12 13 12 11 10 10 9 8 7 6 4 4 3 1
2 2 2 2 2 1 2 2 3 4 6 5 4 3 2 3 1 2 6 8 6 4 3 5 6 7 9 9 10 10 11 14 17 20 22 22 23 23 23 22 22 23 23 23 21 20 21 22 24 25 26 26 26 26 25 25 24 23 22 22 21 21 20 20 20 20 19 17 16 16 16 16 17 18 18 17 16 15 14 13 13 13 13 14 13 13 11 10 10 9 9 8 7 6 4 4 3
3 3 2 1 3 3 2 2 2 4 5 4 3 3 3 4 3 1 4 10 7 4 2 2 5 6 8 8 9 11 13 17 21 24 25 25 26 25 23 22 21 21 22 23 21 21 21 22 24 26 27 27 27 28 27 26 25 24 24 23 23 22 22 21 20 20 20 18 17 17 16 16 17 18 18 17 16 15 14 13 13 14 14 15 14 13 12 10 10 10 10 9 8 7 5 5 4
3 4 2 2 2 3 2 3 3 2 2 1 2 3 4 5 4 2 5 11 9 4 1 1 3 5 7 7 8 11 12 17 20 21 24 25 25 23 23 23 20 20 22 23 21 21 22 22 24 26 27 27 27 28 28 27 26 26 25 25 25 24 23 22 21 20 20 20 19 18 17 17 16 17 18 16 15 14 14 14 14 14 15 15 14 13 12 11 11 11 11 10 10 8 7 6 4
5 5 3 3 1 3 1 2 2 2 1 2 3 3 4 2 2 2 8 10 5 2 1 2 3 4 6 6 8 10 11 15 19 21 23 24 22 22 24 25 24 25 26 23 21 22 22 23 25 27 28 27 27 28 29 28 27 27 27 26 26 25 24 22 21 21 21 21 21 20 19 18 17 17 17 16 15 14 14 14 14 14 15 15 15 13 12 11 11 11 12 11 11 10 9 7 6
3 5 4 3 0 2 2 2 1 1 1 3 3 5 4 1 1 3 6 6 2 3 2 1 3 5 6 6 7 11 12 16 20 20 19 19 22 25 25 26 28 29 28 26 25 23 22 23 25 27 28 28 28 29 29 30 29 29 29 27 26 25 24 23 23 23 22 22 22 21 20 19 18 17 17 16 15 14 14 13 13 15 15 16 15 14 13 12 12 12 13 13 12 11 10 9 8
4 6 3 1 3 3 1 1 2 0 1 3 4 3 5 1 1 5 5 3 3 5 5 3 3 6 6 6 6 8 12 18 19 16 17 21 26 29 29 30 32 31 30 31 30 26 24 24 25 26 28 29 29 30 30 31 31 30 29 29 28 26 25 24 24 24 23 22 22 22 21 20 19 18 17 17 16 15 14 14 14 15 16 16 16 15 14 13 13 13 14 14 14 12 11 10 9
3 4 2 3 5 3 3 2 1 2 3 4 4 3 6 6 5 7 7 3 4 4 5 5 5 7 6 5 5 6 11 15 14 18 25 28 29 28 30 33 33 33 33 32 31 29 28 28 26 25 26 29 30 31 31 32 31 31 30 30 29 27 26 26 26 25 23 22 22 22 23 22 22 20 18 18 18 17 16 16 16 17 16 16 16 15 15 15 14 14 15 16 15 13 11 11 9
2 2 1 1 4 3 4 2 2 3 4 4 3 3 7 9 8 8 8 5 4 4 7 6 6 6 6 5 5 6 10 13 16 24 30 29 27 27 30 32 31 33 33 31 30 31 31 30 28 26 26 28 30 31 32 32 32 32 31 31 30 29 28 28 27 25 24 23 23 23 23 24 24 23 21 20 20 20 19 19 19 18 18 17 17 16 16 16 16 16 16 17 16 14 11 10 10
2 2 1 2 1 3 3 1 5 5 3 3 4 4 9 9 6 8 8 6 7 8 8 8 7 7 6 5 5 6 8 13 19 25 27 27 26 27 30 31 30 31 32 32 33 32 32 31 30 29 28 28 29 32 32 32 33 32 32 31 31 30 29 29 28 27 25 24 24 24 24 25 25 25 24 23 22 22 22 21 21 21 19 18 18 17 17 18 18 18 17 18 17 15 13 11 11
2 3 1 1 3 3 4 1 7 6 2 2 5 3 9 10 6 7 6 5 7 8 8 8 8 8 7 6 5 5 8 13 18 22 25 27 28 29 31 32 31 31 33 34 34 33 32 32 31 31 30 29 29 32 33 32 33 32 32 31 31 31 31 30 29 28 27 25 25 25 25 25 26 27 26 26 25 24 24 24 23 22 21 20 19 19 19 20 20 19 18 18 18 16 15 13 12
1 3 2 2 3 2 3 2 5 5 1 2 6 4 6 6 3 3 2 3 6 6 7 8 9 9 8 6 6 6 7 10 13 19 26 29 30 31 32 33 33 33 33 34 34 34 33 33 33 32 32 32 31 32 33 33 33 33 32 31 30 31 31 31 30 29 29 27 26 27 26 26 26 27 27 27 27 26 26 25 24 22 22 22 21 21 22 21 21 20 19 19 19 18 16 15 13
2 1 2 1 3 3 2 3 4 3 1 4 6 5 9 7 1 3 3 3 5 5 8 9 9 8 7 6 7 7 8 7 9 17 26 29 30 31 31 32 32 32 33 33 34 34 34 34 34 34 33 33 32 32 33 33 33 33 33 32 32 32 32 32 31 31 31 29 28 28 28 27 27 26 27 27 28 27 26 26 25 24 23 23 22 22 22 22 21 21 21 19 19 18 17 15 13
4 3 3 1 2 4 4 3 2 4 3 4 5 4 12 14 7 7 5 3 3 6 8 9 9 7 7 7 7 8 9 8 11 20 26 26 25 26 28 30 30 31 32 33 33 33 34 34 34 34 34 34 34 33 33 33 33 33 33 32 32 33 33 33 32 33 32 31 30 30 29 29 28 27 26 27 27 28 27 27 27 25 25 24 23 23 23 23 22 22 22 21 20 19 18 16 15
7 6 4 4 3 3 4 4 3 4 4 4 7 6 11 17 12 9 8 2 4 8 8 10 10 7 7 8 8 10 10 9 15 24 25 22 21 22 24 27 28 30 31 32 33 33 34 34 34 35 35 35 34 34 33 33 33 33 33 33 33 34 34 34 34 34 33 33 32 31 31 30 29 28 27 26 26 27 28 28 28 27 26 26 25 25 25 24 23 23 23 22 20 20 19 17 16
9 7 6 6 5 4 4 4 4 1 3 4 8 7 10 16 14 10 8 3 5 9 11 13 12 9 8 9 11 12 11 12 17 22 23 21 21 22 23 24 26 27 29 31 32 34 35 35 35 37 37 36 36 36 35 35 36 34 33 34 35 35 34 35 35 36 36 35 34 33 33 32 31 30 28 27 27 27 27 28 28 28 27 27 27 26 25 24 23 22 21 21 21 21 20 19 18
6 6 5 5 6 5 5 4 3 0 2 3 4 5 9 15 15 10 6 4 7 11 13 15 14 11 9 11 14 13 11 10 12 15 20 22 21 21 23 24 24 26 29 32 34 35 35 36 37 38 38 37 38 38 38 38 39 38 37 37 36 36 35 36 37 37 36 36 35 35 34 33 32 31 30 29 29 28 28 29 29 29 28 28 27 26 25 25 24 22 21 21 21 22 22 20 19
4 3 4 3 4 2 4 4 2 1 2 3 3 4 8 13 16 11 7 7 9 12 15 16 14 11 11 13 13 12 12 10 8 11 17 21 21 21 22 24 26 28 30 31 33 34 34 36 39 39 39 39 40 40 40 40 41 40 39 38 36 35 35 36 37 36 35 35 36 36 36 35 34 32 31 31 31 31 31 30 30 29 29 29 28 27 27 27 27 25 23 23 22 21 22 22 21
3 3 3 3 3 3 3 4 1 1 1 1 2 5 7 10 14 14 10 11 11 14 15 15 13 12 14 14 11 11 14 12 9 10 13 17 19 20 22 25 28 29 30 31 32 34 35 38 40 41 40 40 41 41 41 41 39 38 37 36 35 33 33 33 34 35 35 35 36 36 37 36 35 34 33 33 33 33 32 32 31 31 30 30 29 29 29 30 30 28 26 25 23 22 22 23 22
5 5 5 3 4 5 4 2 1 2 3 2 1 6 7 8 12 15 9 8 11 13 13 13 13 12 13 13 13 14 14 12 11 11 11 12 16 20 25 27 28 29 31 32 34 35 37 39 40 41 41 41 42 42 42 40 38 36 34 32 30 29 29 29 29 32 34 35 36 37 37 36 36 35 35 35 34 34 33 33 32 32 32 31 31 31 30 30 31 29 28 27 27 26 25 24 22
6 7 7 6 6 5 2 2 3 3 4 3 0 4 6 5 10 13 6 3 7 9 9 13 14 12 11 11 14 16 13 11 11 12 12 12 16 21 24 27 27 30 33 35 35 36 38 39 39 39 40 41 42 42 42 40 38 37 34 32 31 29 28 30 34 36 36 37 38 38 37 36 36 36 36 36 35 35 35 34 33 33 33 33 33 32 31 30 31 31 30 29 29 29 27 23 22
4 6 8 7 6 5 4 4 2 1 3 2 1 2 6 4 6 9 6 5 8 7 8 11 12 11 10 11 14 13 12 11 10 11 12 14 18 19 22 26 28 32 35 35 35 36 37 38 38 39 40 41 43 42 41 40 40 39 38 38 38 36 34 36 39 38 37 38 38 37 37 36 36 36 36 36 36 36 36 35 34 34 34 34 34 33 32 32 32 33 32 31 31 30 28 25 25
3 4 10 9 7 7 5 5 4 3 2 2 1 2 5 8 7 6 7 8 8 6 9 10 11 13 12 12 13 13 12 10 8 10 12 14 17 19 21 26 29 33 35 33 33 36 37 38 39 39 40 41 42 42 41 42 42 42 41 41 40 40 40 40 37 36 36 36 36 37 37 37 37 36 36 36 36 36 36 36 36 35 35 35 35 35 35 34 33 33 33 32 32 31 31 30 28
2 4 8 9 8 7 6 6 4 1 2 4 4 3 4 9 5 1 3 8 9 6 9 12 13 15 15 14 14 13 12 10 9 11 12 12 17 21 24 26 29 32 34 32 34 36 37 38 38 37 39 40 41 41 42 44 45 44 43 42 41 41 42 39 35 34 35 35 35 37 36 37 37 37 37 37 37 37 37 37 37 37 37 36 36 37 36 35 34 34 34 34 34 34 33 33 30
1 4 6 4 4 4 5 5 4 2 1 8 8 6 5 9 5 1 0 5 8 6 8 11 13 14 14 13 13 11 9 8 9 10 11 14 19 24 24 24 26 29 31 32 34 35 35 35 35 36 38 39 38 39 41 44 45 45 43 43 42 42 41 37 34 33 34 34 35 36 37 38 38 38 38 38 37 38 37 38 37 38 38 37 37 37 37 37 36 36 36 36 35 35 35 34 33
3 4 6 5 4 3 2 3 3 3 5 11 10 10 6 8 3 4 3 4 6 6 6 9 11 12 13 12 11 11 9 7 7 8 10 15 21 24 22 22 25 27 27 29 32 33 34 34 34 36 38 38 37 38 39 42 43 44 45 45 44 44 40 36 34 34 34 34 36 37 37 38 38 39 39 38 38 38 37 37 37 37 37 36 37 37 37 38 37 37 37 36 36 36 35 35 35
5 3 3 3 2 2 2 1 3 4 6 9 7 9 9 8 5 3 4 4 5 6 7 9 11 11 11 10 10 9 8 6 6 7 8 10 14 17 19 22 25 25 24 27 30 32 33 34 34 35 37 38 38 38 39 41 41 42 44 44 43 42 39 36 36 37 36 36 38 38 36 37 38 38 38 39 39 38 37 37 36 36 35 36 37 37 37 37 37 37 36 36 37 36 35 34 35
6 4 3 3 3 3 3 3 3 4 6 5 4 8 7 9 12 11 10 8 7 8 8 8 10 11 12 12 10 7 6 7 7 7 7 7 8 11 15 19 22 23 25 28 30 30 31 33 34 35 37 38 37 37 38 40 42 43 44 43 42 41 39 38 39 39 38 39 39 37 36 37 38 38 39 39 40 39 37 37 37 36 36 36 36 36 36 36 36 36 36 37 37 36 36 35 37
9 8 6 4 3 3 3 3 1 3 6 4 5 7 2 7 11 15 17 15 14 13 11 11 11 14 16 15 11 9 9 10 8 7 8 7 8 11 14 19 21 22 25 27 28 29 30 31 32 35 37 36 35 37 38 40 42 44 45 45 44 43 41 40 40 40 40 39 39 38 38 39 39 39 40 40 40 38 37 37 36 36 36 35 35 35 35 35 35 35 36 37 37 37 36 36 37
10 7 6 5 4 3 3 3 2 3 3 2 3 5 4 6 4 5 9 9 9 10 11 11 12 14 15 13 12 13 13 12 8 7 9 9 11 15 17 20 22 23 24 25 26 27 27 30 33 35 37 36 35 37 38 40 43 45 44 45 45 44 42 41 42 42 40 38 38 38 39 40 40 41 40 39 38 37 36 36 35 35 35 34 33 34 34 34 34 34 35 36 37 36 35 35 36
6 4 5 7 6 3 1 0 3 3 1 2 2 2 5 6 6 7 6 3 4 7 8 10 12 13 11 11 12 12 12 11 8 7 9 11 12 16 18 20 23 24 24 25 26 26 27 30 33 34 37 36 35 37 39 41 42 42 43 44 44 43 42 41 41 41 40 39 38 39 40 41 40 40 38 36 36 36 35 35 34 34 33 32 32 32 32 32 32 33 34 35 35 35 34 34 35
4 4 6 5 2 5 2 2 2 2 2 3 3 3 4 5 10 11 7 7 8 9 9 11 12 10 8 10 10 10 11 11 9 7 9 10 11 14 18 21 23 24 25 27 28 28 27 29 31 33 35 34 34 37 39 40 40 40 41 43 43 43 42 42 42 42 41 40 39 39 39 39 38 37 36 36 35 35 34 33 33 32 30 29 29 30 30 30 31 32 33 34 34 33 33 34 34
4 5 6 2 4 3 2 2 0 1 4 4 3 6 5 3 7 6 5 7 7 8 10 11 13 10 9 11 11 11 11 10 9 8 9 10 10 13 18 21 24 26 27 28 29 28 26 27 29 31 33 33 34 36 37 38 38 39 40 41 42 42 43 44 44 44 41 39 39 39 38 37 37 36 35 35 34 33 32 32 31 30 28 27 27 27 28 29 29 31 32 33 33 32 32 33 34
2 3 5 4 1 1 2 3 2 3 4 3 3 6 4 5 9 8 10 11 5 4 8 9 14 15 11 10 12 12 11 8 9 9 9 9 10 14 18 21 23 25 25 26 26 25 25 26 28 30 32 33 32 33 35 37 38 39 39 40 41 42 43 43 44 43 40 38 39 39 38 38 37 35 34 34 32 32 31 30 30 29 28 27 27 27 27 28 29 30 31 32 32 31 32 33 34
2 1 3 2 2 3 4 4 2 2 4 4 3 4 3 7 11 12 16 13 5 6 7 8 13 15 10 8 10 11 10 8 8 8 9 9 10 14 17 18 20 21 21 23 23 22 24 25 25 27 30 30 29 30 33 35 37 37 37 38 39 40 41 42 42 40 38 38 39 38 38 38 36 34 34 33 32 31 31 30 29 29 28 28 28 27 27 28 29 30 31 31 31 31 33 34 34
4 3 5 4 2 1 1 3 2 3 4 3 3 5 6 7 7 10 14 10 6 9 9 9 12 12 10 9 9 10 10 9 9 8 9 10 11 14 16 16 17 19 20 21 21 22 23 24 25 26 27 27 28 30 32 34 35 36 36 37 38 39 39 39 39 39 37 38 39 38 37 37 35 34 34 32 32 31 31 30 30 30 30 29 29 29 28 28 30 31 32 32 32 33 34 34 33
8 7 7 8 6 3 2 4 3 2 4 4 4 6 10 8 4 6 10 8 7 10 10 10 10 11 11 10 10 10 9 10 10 8 8 8 8 12 15 16 18 19 20 20 21 22 23 24 25 25 25 27 29 31 31 33 33 33 35 37 37 36 36 37 37 36 36 37 38 37 37 35 34 34 33 32 32 31 31 30 31 31 31 31 31 30 29 29 30 32 33 33 34 34 34 34 33
Wind_Direction
353 348 345 341 342 347 24 50 64 325 71 83 315 195 219 196 345 171 195 187 150 259 221 136 144 138 130 141 188 170 144 180 175 152 245 288 94 152 158 149 153 159 156 151 153 153 153 150 148 147 144 142 129 125 129 136 140 142 136 120 115 109 108 108 103 104 100 97 98 100 95 95 107 108 104 102 101 98 95 95 94 93 94 95 96 92 90 87 85 85 84 84 83 82 82 81 78
356 351 348 340 351 14 314 59 97 338 56 96 258 196 253 302 312 199 195 188 189 236 84 113 117 101 80 64 116 132 135 269 214 224 295 284 139 156 163 158 161 163 158 155 156 157 158 154 153 152 148 142 129 129 126 131 137 141 146 130 124 126 122 115 107 108 101 102 106 104 97 95 107 111 110 106 104 104 99 97 97 96 97 96 95 92 89 87 86 86 85 85 83 82 83 82 79
356 351 351 340 359 42 81 37 89 85 77 137 263 235 210 158 211 219 203 197 172 146 50 107 106 71 58 50 153 135 168 283 234 233 287 175 156 167 171 163 164 163 161 160 160 161 160 156 157 155 151 143 131 134 127 129 139 141 145 134 129 133 126 121 112 110 113 116 113 108 102 101 111 114 113 108 106 107 100 95 95 97 98 95 94 92 90 88 87 86 85 85 84 84 84 81 79
353 350 350 347 33 37 65 40 122 125 113 185 275 246 204 183 209 224 221 209 170 107 29 97 54 144 81 253 182 56 186 272 211 191 188 183 181 177 169 161 165 162 163 164 162 163 161 160 160 159 154 147 137 135 129 127 132 133 139 135 129 131 123 116 111 113 118 120 118 114 110 113 119 119 115 107 104 105 101 99 98 98 99 98 97 93 91 91 88 86 85 84 84 87 87 83 82
348 349 358 25 98 36 93 70 96 100 163 180 83 253 228 200 192 191 208 213 188 135 114 120 23 201 11 230 164 135 176 74 196 193 190 189 192 182 169 163 166 165 166 167 165 164 165 166 163 162 157 151 144 134 133 133 132 131 136 136 131 130 123 117 117 118 116 117 122 125 129 131 127 123 116 102 100 103 104 105 103 100 102 100 96 93 91 90 87 86 84 84 86 87 86 84 85
348 357 28 60 101 120 118 75 53 346 216 172 119 260 237 199 187 161 112 4 215 164 165 165 168 182 289 243 229 192 173 103 169 193 191 184 187 180 171 166 168 169 170 169 168 168 169 170 167 165 162 157 148 136 138 142 140 136 135 136 134 131 127 127 128 126 121 121 129 132 134 133 128 124 116 107 100 100 103 104 103 101 101 100 96 93 91 89 87 87 85 86 87 87 84 84 85
350 348 35 62 76 53 91 131 202 256 224 173 184 262 239 200 187 134 111 126 179 67 146 218 145 127 219 272 273 201 206 172 163 199 189 174 176 179 175 171 170 174 175 173 172 172 173 174 172 170 168 164 154 142 142 144 142 136 135 138 136 134 133 132 130 128 126 124 129 128 121 124 126 124 121 121 110 102 105 105 105 103 100 100 97 94 93 92 90 88 87 86 87 86 85 85 84
353 358 3 73 47 27 84 144 225 227 210 208 235 260 237 197 173 131 147 195 191 191 143 221 137 132 232 31 137 207 220 196 187 195 178 167 171 179 178 175 174 177 180 178 176 176 177 178 176 175 173 170 160 148 147 149 143 135 137 141 138 140 139 134 133 134 134 133 133 129 124 129 130 129 129 128 120 112 111 108 107 103 102 104 101 100 99 98 95 91 89 88 87 87 88 88 85
8 28 172 83 75 37 56 339 264 246 262 250 249 258 243 181 157 127 164 249 272 170 183 202 162 191 315 27 274 253 227 202 197 172 172 170 173 178 178 179 179 178 182 182 180 180 179 181 180 179 177 173 167 159 157 158 153 146 144 144 143 147 146 142 145 146 150 146 135 135 138 141 137 134 134 129 124 120 114 109 106 104 108 113 112 107 104 104 102 97 95 94 92 92 91 92 87
25 21 135 91 96 51 2 287 278 266 255 251 253 243 207 170 144 95 155 232 261 142 195 202 104 277 74 204 268 315 125 197 179 170 176 175 173 178 180 182 185 181 182 183 182 183 182 183 183 181 180 175 175 174 169 168 166 158 153 153 151 154 156 156 157 154 156 150 138 143 147 149 145 137 136 132 129 125 118 112 108 111 118 122 118 110 107 110 107 102 103 102 99 99 93 92 88
38 358 98 94 92 106 239 235 284 277 272 294 275 231 200 164 124 78 138 241 202 123 182 156 128 170 101 289 262 163 165 184 175 172 178 177 174 178 181 183 189 188 186 186 185 187 186 186 185 184 183 180 183 184 178 175 175 169 162 160 160 162 168 170 165 159 155 149 150 155 153 155 153 146 144 140 139 134 127 119 109 111 117 119 119 114 111 114 111 108 111 110 106 103 96 94 89
113 336 63 97 142 171 188 183 278 284 307 327 150 217 188 146 127 162 194 213 182 161 224 190 184 142 102 299 259 235 203 190 182 175 177 179 177 179 182 185 188 191 191 189 188 189 190 189 188 187 188 187 187 187 184 182 181 175 166 165 169 170 176 176 167 165 158 152 159 156 153 158 156 158 156 149 146 142 137 128 118 119 120 116 120 122 118 120 120 118 119 116 113 110 106 101 92
138 146 95 126 157 146 147 146 276 306 323 278 183 202 159 150 179 191 163 171 177 161 239 204 160 87 145 265 275 287 221 194 185 177 179 179 179 181 184 187 188 191 191 190 191 192 193 193 192 191 193 191 190 190 188 189 186 174 168 175 180 177 178 174 167 165 160 159 167 163 161 164 157 159 162 159 155 146 142 131 123 130 133 127 130 132 130 131 129 124 123 119 118 120 119 111 97
139 151 124 141 100 133 151 137 213 172 265 254 202 164 171 192 196 170 142 176 228 184 238 188 151 110 185 259 296 295 193 184 185 181 180 178 182 186 187 188 189 191 191 192 193 195 198 198 196 194 196 194 194 196 193 193 188 178 176 183 185 182 181 178 174 170 169 170 175 176 177 182 172 163 165 167 165 155 147 142 136 137 145 149 144 142 141 138 132 129 129 128 125 125 127 122 104
136 141 94 110 101 169 173 156 156 153 226 217 163 156 177 244 147 143 163 184 244 210 129 144 155 166 180 185 224 293 181 176 183 180 178 179 183 188 189 189 191 192 192 195 196 199 202 201 200 197 197 197 199 201 199 195 190 185 185 188 189 188 187 186 183 181 184 184 186 190 191 196 195 186 181 174 171 169 165 168 171 160 158 154 149 148 147 143 138 137 136 135 132 130 129 125 110
107 112 69 106 179 213 193 178 140 141 236 207 162 147 165 253 139 152 211 164 253 290 115 178 189 182 168 175 207 316 179 172 179 178 175 178 184 188 190 191 193 195 195 198 199 201 203 203 203 203 199 200 204 206 204 198 192 192 192 194 195 194 191 188 186 188 192 194 197 199 199 203 205 203 200 196 190 191 190 192 201 197 180 161 154 153 152 151 146 143 143 143 138 130 125 130 118
47 87 77 149 191 217 193 180 176 162 237 232 232 184 158 233 253 189 228 104 118 298 308 232 217 211 187 193 285 319 168 170 175 173 173 177 182 187 192 194 194 198 199 200 202 201 203 203 203 207 205 203 206 209 208 202 197 196 198 202 203 200 195 191 191 194 196 201 204 201 203 206 207 208 208 211 212 211 212 212 219 217 199 173 163 160 159 158 156 153 153 148 139 122 108 112 109
44 97 124 201 191 203 181 180 200 170 175 198 200 190 162 191 215 175 132 50 47 193 287 284 268 254 231 242 296 284 167 169 173 172 173 177 182 186 193 198 197 200 201 202 205 203 204 204 204 208 208 206 207 209 210 208 203 203 205 208 210 206 201 200 202 203 204 211 215 211 207 207 208 211 213 216 219 221 223 226 228 221 205 184 172 168 166 168 168 166 163 155 142 120 99 97 92
85 117 164 222 196 208 191 174 192 175 129 168 173 192 179 187 172 145 194 294 7 203 265 309 295 272 247 245 254 185 170 172 176 177 179 181 186 189 193 198 200 203 204 206 207 204 205 206 206 208 208 208 208 208 211 212 209 209 211 212 213 212 211 211 213 213 214 220 224 221 214 210 209 212 215 217 219 222 226 231 230 222 207 190 180 176 174 177 179 177 175 169 154 119 100 106 94
146 133 194 237 212 229 208 172 194 209 156 151 166 194 201 203 165 151 180 179 107 218 235 213 246 256 241 214 169 171 173 176 181 185 189 190 194 196 196 197 200 204 207 210 208 203 205 207 207 208 210 208 209 209 210 213 213 213 214 215 216 215 217 217 220 222 223 228 228 224 219 212 209 211 215 216 217 219 225 230 229 224 211 195 185 182 183 186 187 188 187 182 170 136 113 117 103
155 156 199 236 202 228 224 183 194 194 147 152 149 145 205 222 174 154 151 150 254 237 226 205 218 231 227 221 176 173 176 180 185 192 198 200 202 203 204 203 204 208 211 214 211 206 206 209 209 209 211 210 210 210 210 213 214 215 216 217 218 217 219 220 223 225 228 234 228 222 220 214 210 210 213 215 216 218 223 227 227 223 212 199 191 188 189 192 195 199 199 194 187 167 138 130 117
150 213 203 211 155 199 265 175 161 144 110 108 119 149 196 172 167 171 156 178 233 229 219 210 215 211 202 198 179 178 183 187 189 197 203 206 208 210 211 211 210 211 213 216 215 211 209 211 212 210 213 212 211 212 212 215 215 216 218 218 219 219 220 223 225 226 231 235 224 219 219 214 212 212 214 216 217 220 223 224 222 217 210 202 195 194 195 197 202 204 204 200 197 194 188 187 211
185 249 238 222 176 209 321 70 153 137 113 131 160 183 149 115 237 193 171 212 225 214 203 192 218 222 200 178 169 180 190 194 198 202 203 205 210 211 212 212 212 212 213 216 216 214 212 213 214 213 214 213 213 215 216 216 217 217 219 220 221 221 222 224 226 228 232 233 223 220 220 217 216 216 216 216 217 220 221 219 217 213 208 204 200 199 201 202 206 208 206 206 207 210 213 222 243
170 229 269 203 173 213 321 50 154 131 131 180 184 145 144 173 213 91 207 242 243 224 228 222 241 218 188 171 174 190 195 200 206 208 208 209 213 214 213 214 214 214 215 217 216 215 213 214 215 213 216 216 213 216 218 218 219 220 221 222 223 224 224 226 229 229 231 232 227 225 225 225 222 220 220 218 217 218 218 217 215 212 207 204 203 204 206 208 213 214 212 213 215 221 228 230 246
187 213 232 140 176 246 325 66 96 105 162 193 132 160 204 194 168 122 233 251 258 242 249 281 214 169 177 187 192 199 200 207 213 215 215 217 218 218 219 219 218 217 218 219 217 216 214 214 217 215 217 219 215 216 220 221 222 223 224 224 224 225 225 228 231 231 231 231 230 229 230 231 228 225 223 220 218 217 217 217 216 213 208 205 206 207 211 215 220 222 221 220 221 230 239 238 249
209 192 185 147 201 290 20 106 74 36 228 128 138 238 270 213 151 233 245 248 258 219 91 68 145 162 195 202 202 202 206 213 216 218 220 222 221 221 223 222 222 222 224 222 219 219 216 214 218 219 218 220 219 217 220 223 224 225 227 227 227 227 228 230 231 233 233 233 232 231 233 235 234 230 228 224 221 219 218 218 217 213 209 208 209 211 215 221 225 227 225 224 226 233 242 243 246
178 161 152 135 239 311 75 152 246 7 233 169 182 257 278 241 208 242 258 257 224 177 225 331 168 204 216 208 212 209 212 219 218 218 221 222 223 225 224 222 224 226 226 225 224 223 219 217 218 222 221 220 221 220 220 224 226 228 229 229 229 230 231 231 232 234 235 235 235 234 234 236 236 234 231 229 224 221 219 218 216 214 213 212 214 217 220 225 229 231 228 227 230 235 244 247 249
132 142 131 1 345 306 101 143 239 177 220 173 153 273 286 279 215 219 251 265 164 196 237 266 222 233 231 216 219 211 220 227 223 220 220 219 223 224 224 224 225 226 227 229 229 226 224 223 219 221 224 222 222 223 222 224 227 230 230 230 231 232 233 233 234 236 237 238 239 238 237 236 237 235 233 233 229 226 222 218 217 217 218 218 220 223 226 231 234 235 232 230 233 239 247 249 250
126 134 146 313 2 318 242 184 208 170 195 174 137 301 275 241 228 219 231 217 146 190 243 258 241 244 243 228 226 218 227 230 222 223 227 227 227 225 227 229 227 227 230 232 231 229 229 229 224 222 224 223 223 225 224 225 228 230 231 232 232 233 234 235 236 237 240 242 242 241 240 238 238 238 235 235 233 231 228 223 221 220 221 223 226 230 233 236 238 239 236 233 235 240 246 245 247
136 111 130 273 14 311 250 166 145 162 183 171 156 273 258 239 236 224 228 215 182 228 251 254 248 248 248 237 235 237 232 224 217 225 231 233 233 231 233 235 231 230 233 231 230 231 232 233 230 226 224 223 225 226 225 225 228 230 232 233 234 234 235 237 238 239 242 244 245 244 243 240 238 238 237 237 236 234 233 229 226 223 223 225 229 233 238 241 242 240 238 234 235 239 241 240 246
133 132 147 175 185 272 286 175 156 169 196 144 142 247 261 255 243 230 233 216 207 231 243 245 248 249 249 239 235 248 242 228 227 231 235 238 237 236 238 240 236 233 233 232 233 235 234 234 233 231 228 225 225 226 226 226 229 230 232 233 234 236 237 239 240 240 243 245 247 246 245 242 239 239 238 239 239 237 236 234 230 227 225 227 230 234 238 241 243 241 238 235 235 238 238 241 249
118 177 205 192 194 258 316 262 175 188 224 142 149 222 268 271 254 236 241 212 212 228 239 247 253 253 251 248 237 246 254 244 241 241 243 242 240 240 240 242 239 236 235 234 235 235 234 235 234 233 232 229 226 228 230 230 231 232 233 234 235 236 238 240 241 241 243 246 248 248 247 245 242 241 239 239 240 240 239 237 234 231 229 231 233 235 237 239 242 243 240 236 236 238 240 244 253
273 198 189 179 178 235 308 273 222 217 126 194 207 222 264 279 283 278 318 194 213 234 252 257 255 256 256 256 250 246 256 256 249 244 245 244 241 241 242 243 242 240 238 236 235 234 234 234 233 233 234 233 230 229 231 231 232 233 234 236 236 237 239 240 242 242 242 244 246 248 248 247 244 242 241 239 240 241 241 240 239 237 235 236 236 237 239 239 241 244 243 239 237 240 243 247 254
225 142 156 173 158 166 234 270 257 219 161 228 224 232 250 259 306 321 329 162 194 231 250 257 255 259 263 260 261 255 253 253 249 246 246 246 242 242 243 245 244 242 240 238 236 234 234 234 233 234 235 235 233 231 232 233 233 234 235 236 236 237 239 240 242 242 242 244 245 247 248 247 246 245 243 240 240 241 242 241 241 241 240 240 240 241 242 242 242 244 244 241 238 240 244 248 255
168 135 138 139 167 173 196 243 230 165 184 234 219 237 255 258 255 260 266 153 189 247 250 260 257 256 262 262 260 254 253 249 246 248 250 250 246 245 246 246 245 242 240 238 236 235 234 234 233 234 234 233 234 233 233 232 232 233 234 235 236 237 238 239 241 242 243 244 245 247 247 247 247 246 245 241 240 241 242 243 243 243 243 243 243 245 246 243 241 242 242 240 239 241 245 248 254
151 150 165 168 182 207 216 244 249 173 166 226 223 228 251 257 256 251 259 230 248 267 265 266 262 252 250 255 256 252 251 248 248 252 255 256 252 253 253 250 246 242 239 237 235 232 231 232 231 232 233 232 231 230 229 228 228 230 231 232 233 235 236 238 240 242 243 244 245 247 247 247 248 247 246 243 241 242 243 245 245 245 245 246 246 247 247 243 241 242 241 240 241 242 245 247 252
150 153 179 186 189 227 239 252 294 205 168 238 231 230 251 260 262 254 256 252 258 267 265 264 262 255 245 246 252 251 248 250 254 257 259 259 256 257 257 253 245 238 235 234 231 230 229 229 229 230 231 229 228 227 225 224 224 224 226 229 231 233 235 237 239 241 242 243 245 246 247 247 247 246 246 244 243 244 245 246 247 247 247 247 248 249 249 245 242 244 244 243 244 245 245 245 249
137 158 174 190 199 224 243 239 296 7 181 261 246 234 252 261 264 254 238 232 243 249 253 259 259 256 250 247 251 253 253 253 255 259 260 259 256 255 255 250 240 233 232 231 229 229 229 228 228 230 230 227 226 227 225 224 225 225 225 228 231 233 235 236 239 241 243 245 245 246 246 247 247 247 247 246 246 246 246 247 247 247 247 247 249 250 250 245 242 243 244 244 244 243 243 243 244
125 142 149 187 210 231 280 264 265 150 188 266 283 261 257 263 269 260 228 223 239 241 243 251 257 257 255 251 252 254 257 256 250 256 260 258 256 253 249 244 238 235 234 231 228 228 226 226 228 229 228 226 227 227 226 226 227 227 228 230 232 233 236 240 243 245 247 247 246 246 246 246 246 246 247 247 247 247 247 248 249 249 248 248 248 249 248 242 239 240 241 242 241 239 239 239 240
163 148 151 194 184 164 267 283 274 190 209 272 300 288 269 264 274 268 233 216 235 244 243 249 252 250 253 255 258 256 256 257 251 250 257 256 252 246 240 238 237 235 232 229 226 225 225 226 228 227 226 225 226 227 227 227 228 228 229 231 234 235 239 243 244 244 244 245 245 245 244 245 246 247 248 247 247 247 248 249 250 250 250 249 248 248 247 241 238 238 238 240 237 233 233 235 236
202 198 193 182 166 185 219 280 323 352 351 353 296 288 273 236 252 263 240 205 231 247 249 255 254 247 253 263 265 258 254 256 253 251 253 250 243 239 237 237 235 231 229 229 226 225 226 228 229 227 225 225 225 227 227 226 224 225 225 225 229 233 235 236 236 237 237 239 241 243 244 245 247 248 247 247 247 247 248 249 250 250 250 249 248 248 247 244 240 238 238 238 236 231 231 233 233
213 211 199 173 165 191 204 59 29 9 329 326 11 286 279 214 228 254 260 198 228 247 250 255 259 255 254 259 260 258 255 251 248 250 253 249 242 240 239 236 231 229 232 233 230 230 230 230 230 227 225 225 225 226 225 222 220 221 218 215 217 220 223 226 228 230 232 235 238 241 244 245 246 247 247 247 248 248 248 248 249 249 249 248 248 248 247 245 241 240 238 238 238 236 233 231 232
226 199 173 166 154 153 137 107 91 305 271 289 99 241 275 271 240 244 253 243 239 250 258 258 263 263 253 249 254 257 256 249 242 244 247 248 244 239 238 235 229 231 236 236 233 232 232 230 230 228 227 226 225 224 222 220 218 218 217 217 218 217 219 225 228 230 233 236 238 240 243 245 246 247 248 248 248 248 247 247 247 248 249 248 247 246 246 244 243 241 241 240 240 239 234 229 232
229 163 155 164 162 157 151 143 175 226 284 301 133 166 269 279 261 231 224 241 247 249 261 264 261 261 256 251 253 252 252 247 241 244 243 244 244 239 236 236 234 237 240 237 233 233 233 231 230 229 228 226 225 222 220 219 218 217 217 219 221 221 224 228 230 231 233 235 237 240 241 244 246 247 248 248 249 248 247 246 246 247 247 247 246 245 245 245 244 243 242 241 241 239 236 234 234
223 152 154 167 170 166 154 146 183 245 355 269 227 150 259 269 263 245 216 239 247 236 245 256 255 256 257 254 253 250 249 244 237 243 245 246 247 245 242 241 241 242 242 238 237 237 236 234 232 229 229 227 224 221 219 219 219 218 218 218 221 224 227 230 231 232 233 233 235 238 240 242 244 246 247 247 247 246 246 246 246 246 246 245 244 244 245 244 244 243 242 242 240 238 237 237 235
193 120 103 107 120 121 135 145 157 129 217 245 225 168 234 269 250 173 314 246 249 237 230 244 250 253 257 258 260 258 253 245 237 242 248 249 250 252 252 249 246 245 244 242 242 240 237 235 232 230 230 228 225 222 219 219 219 217 218 219 220 224 226 227 228 230 231 231 233 235 237 239 241 243 244 244 244 244 245 246 245 245 245 245 244 244 243 242 242 243 243 243 241 239 238 237 237
119 96 82 73 67 70 97 120 126 151 227 244 226 175 199 273 255 163 201 228 224 227 236 250 255 258 261 261 263 263 257 251 244 245 250 253 256 258 258 255 252 249 246 244 243 240 237 235 232 231 232 229 226 224 221 221 220 217 218 220 221 223 224 223 223 225 227 228 230 232 234 236 238 240 242 242 243 243 244 244 244 245 245 245 244 244 243 243 243 243 243 243 242 240 239 239 240
131 93 103 114 105 91 91 115 161 196 234 245 221 166 179 246 258 178 228 248 221 216 231 253 260 264 268 266 261 260 260 259 254 251 255 258 261 261 258 255 254 251 246 242 241 239 236 234 231 231 231 229 226 224 222 222 221 220 221 222 223 224 224 222 222 223 224 225 228 230 231 233 235 237 238 239 240 241 241 242 243 243 243 243 244 244 244 244 243 243 242 242 241 241 239 238 240
161 149 158 170 180 176 172 191 189 207 251 256 166 145 173 243 259 252 250 255 245 228 219 237 258 268 270 268 264 263 264 258 253 252 255 256 257 257 255 254 254 251 246 243 241 238 235 233 229 229 231 229 225 223 223 222 221 221 223 223 225 226 225 224 224 226 226 226 228 228 227 229 232 234 234 236 239 239 239 240 241 242 243 245 245 245 246 245 243 242 242 242 242 241 239 238 240
182 176 182 191 192 197 188 185 164 209 256 270 136 132 179 264 263 253 244 239 237 239 239 240 250 261 264 267 271 274 273 266 258 255 257 255 252 252 252 253 254 251 248 246 243 239 235 232 229 228 231 230 225 223 223 222 222 223 224 224 225 226 226 226 226 228 229 228 228 228 229 230 231 233 234 237 239 239 239 241 242 244 245 246 247 247 247 246 243 242 242 242 242 242 241 240 241
191 181 174 193 204 219 205 174 181 207 254 283 136 136 207 233 250 245 237 243 244 246 255 256 254 257 261 269 274 274 275 273 265 255 256 254 251 252 253 254 255 255 254 250 246 242 236 232 230 228 230 229 225 223 223 223 224 225 224 225 225 225 226 227 228 230 230 229 229 230 231 233 234 236 237 238 240 239 240 242 242 244 245 246 247 247 247 246 244 243 243 243 243 242 240 241 242
190 149 158 210 212 191 245 97 156 160 348 301 207 203 224 236 282 279 244 252 270 258 261 264 259 257 262 269 269 269 274 275 269 255 258 259 253 253 255 256 258 259 258 254 250 247 240 235 231 228 231 230 224 223 224 224 225 225 224 225 225 225 225 227 229 230 231 231 231 232 234 235 237 238 238 239 241 241 241 242 242 242 243 244 246 247 247 247 245 243 243 243 242 241 239 240 241
167 161 180 215 164 132 189 278 110 109 271 248 186 231 274 289 289 283 256 227 233 241 247 254 257 257 264 267 262 262 266 271 273 264 264 268 264 259 257 257 259 258 257 255 253 251 245 239 234 231 232 230 226 225 225 225 225 225 226 226 226 225 225 227 229 231 232 231 232 233 235 237 237 238 239 240 241 241 241 241 240 241 242 243 245 247 247 247 246 245 244 243 241 241 240 240 242
144 187 181 130 50 75 181 231 108 141 241 255 192 220 248 269 270 298 299 248 231 228 238 254 266 260 252 258 262 263 263 269 279 274 267 269 267 262 259 257 258 257 257 257 256 254 249 245 241 236 234 231 228 227 226 226 225 225 226 226 226 226 226 228 230 232 232 231 232 233 234 236 238 238 239 240 240 240 239 239 239 239 240 241 243 245 246 246 246 246 245 244 244 243 240 240 242
117 185 164 131 112 217 157 186 213 187 221 263 229 216 212 226 246 267 269 257 233 226 241 251 262 259 253 261 268 271 272 272 277 274 269 267 261 256 256 257 258 259 259 259 258 255 250 248 245 241 239 238 233 229 227 227 226 226 227 227 228 228 228 229 231 232 232 231 232 234 234 236 237 237 238 238 238 238 237 236 236 236 238 240 242 244 244 244 243 244 244 244 245 244 240 239 242
34 69 156 160 228 195 164 193 211 176 217 247 240 227 216 227 236 244 255 254 212 215 242 237 250 259 261 262 267 273 277 273 270 270 269 268 265 262 260 262 266 268 267 262 258 253 248 248 247 244 243 241 237 234 231 229 228 227 227 228 229 229 229 230 231 232 231 232 234 234 235 236 236 236 237 237 237 236 234 234 234 235 237 240 242 242 242 242 242 242 243 243 244 243 240 239 241
181 177 177 194 210 130 160 216 163 151 210 233 249 256 251 237 224 232 249 252 208 213 234 235 245 260 263 258 261 267 272 272 267 264 265 270 275 278 276 275 277 278 275 267 260 256 253 249 247 245 243 241 239 236 234 232 230 228 228 228 229 230 230 231 232 232 232 233 235 235 235 236 235 235 236 235 235 235 234 234 234 235 237 239 240 241 241 241 240 241 241 241 242 241 239 239 241
187 199 193 195 190 144 199 227 187 178 208 204 218 252 260 248 187 212 240 235 209 216 227 237 246 257 262 261 258 259 265 270 268 262 267 277 285 289 292 290 284 279 275 269 260 256 254 248 244 242 241 241 240 238 236 234 232 230 230 230 231 231 231 231 231 232 232 234 235 236 236 236 235 236 235 234 235 235 234 234 234 235 238 238 239 239 241 241 240 240 240 239 239 237 237 238 239